Main page
Satellite images Climate Cyclones Lightning AirportsFAQ Languages Contact Newsletter About
Weather : Europe Africa North America South America Asia Australia-Oceania Others

, Trang, Trang Airport

48567

latitude: , longitude: Thailand, elevation: 07-31N m


METAR: VTST 211100Z 28007KT 3000 RA FEW017 BKN022 OVC100 23/23 Q1007 RERA